Погода в Тамбове

Погода в Тамбове : погода сейчас, прогноз погоды и архив. Всё, что Вы хотите узнать о погоде в Тамбове!

Поиск расширенной информации на нашем сайте:

Другие новости

Новости СМИ2

Главная страница сайта

Новости сайта

03.07.2017

Напоминаем, что на нашем специализированном сайте Метеоцентр.Азия вы можете получить высокодетализированные автоматические прогнозы погоды по пунктам России, СНГ и мира в авиационном формате (включающие направление и скорость ветра, видимость, явления погоды, количество и форму облачности, нижнюю и верхнюю границу облачности).


Погода в Тамбове - сегодня

Время (UTC), дата Ветер
(°,м/с) 
Видим.   Явления Облачность Т
(°С)
Тd
(°С)
f(%) Тe
(°С)
Pmin
(гПа)
dP
(гПа)
Po
(мм)
O2
(г/м3)
Тmin Tmax R s Состояние
почвы
09 16.02.18 140 (ЮВ) 10 км  в посл. час снег  9/0 средняя 
[Ac trans]
-4.5 -9.1 70 -7  1037.8  0.1  765  314           
18 16.02.18 130 (ЮВ) 10 км    10/10 1000 м 
[Sc]
-4.8 -10.1 66 -8  1035.4  -0.7  764  314           
21 16.02.18 120 (ЮВ) 10 км    9/0 средняя 
[Ac trans]
-5.9 -11.6 64 -9  1034.5  -0.9  763  315           
03 17.02.18 130 (ЮВ) 10 км  слаб. снег  10/10 1000 м 
[Ns]
-7.3 -10.3 79 -10  1032.8  -1.3  762  316  -7.4    0.0  14  равномерный
сухой снег
100% 
15 17.02.18 120 (ЮВ) 10 км  слаб. снег  10/10 750 м 
[Ns]
-4.3 -9.8 65 -7  1027.6  -1.3  758  311    -4  0.2     
03 18.02.18 130 (ЮВ) 4000 м  слаб. снег  10/10 750 м 
[Ns]
-7.1 -10 80 -9  1024  -1.4  755  313  -7.2    0.8  15  равномерный
сухой снег
100% 
15 18.02.18 160 (Ю) 10 км  {снег}  10/10 660 м 
[Sc]
-5.8 -8 84 -5  1021.3  -0.3  753  311    -5.2     
03 19.02.18 180 (Ю) 4000 м  слаб. снег  10/10 150 м 
[Frnb|Ns]
-5 -5.7 95 -6  1019.6  -0.5  752  309  -6.6    0.0  16  равномерный
сухой снег
100% 
15 19.02.18 180 (Ю) 4000 м  слаб. снег  10/10 870 м 
[Ns]
-1.7 -3.4 88 -4  1018.7  751  305    -1.1  0.6     
21 19.02.18 220 (ЮЗ) 10 км    10/10 1200 м 
[Sc]
-3.3 -5.7 83 -4  1018.4  -0.7  751  307           
03 20.02.18 200 (Ю) 10 км    8/4 1000 м средняя 
[Sc|Ac trans]
-8.2 -10.1 86 -10  1018.2  -0.6  751  313  -8.9    0.0  16  равномерный
сухой снег
100% 
03 21.02.18 250 (З) 10 км  слаб. снег  10/10 240 м 
[St|Ns]
-12.6 -14.1 89 -15  1022.4  0.8  754  320  -13.6    0.8  17  равномерный
сухой снег
100% 
09 21.02.18 260 (З) 10 км  {снег}  ясно 
-10.8 -14.4 75 -11  1023.8  0.5  755  318           
18 21.02.18 тихо ()   10 км    ясно 
-18.4 -20.3 85 -18  1026  0.9  756  328           
21 21.02.18 тихо ()   10 км    4/0 верхняя 
[Ci sp]
-18.1 -20.7 80 -18  1026.9  0.8  757  328           
00 22.02.18 тихо ()   10 км    4/0 средняя 
[Ac trans]
-18.6 -21.2 80 -19  1027  0.1  757  329           
06 22.02.18 тихо ()   10 км    ясно 
-17.5 -19.4 85 -18  1027.8  0.5  757  328  -21.8         
09 22.02.18 тихо ()   10 км    ясно 
-12.5 -15.2 80 -13  1027.4  757  321           
12 22.02.18 280 (З) 10 км    ясно 
-9.4 -14.5 66 -11  1027.3  757  317           
18 22.02.18 тихо ()   10 км    ясно 
-17 -18.3 90 -17  1028  0.4  758  327           
21 22.02.18 тихо ()   10 км    ясно 
-18.5 -20.4 85 -19  1028.5  0.4  758  329           
00 23.02.18 тихо ()   10 км    3/0 верхняя 
[Ci sp]
-21.3 -23.8 80 -21  1029  0.2  758  333           
03 23.02.18 тихо ()   10 км  слаб. ливневой снег  8/8 600 м кучево-дожд. 
[Cb calv]
-22.2 -24.7 80 -22  1028.7  -0.3  758  334  -22.6    0.0  18  равномерный
сухой снег
100% 
06 23.02.18 тихо ()   10 км  {ливн. осадки}  ясно 
-18 -20.6 80 -18  1028.6  0.2  758  329           
09 23.02.18 тихо ()   10 км    ясно 
-14.6 -17.3 80 -15  1028.3  758  324           
Время (UTC), дата Ветер
(°,м/с) 
Видим.   Явления Облачность Т
(°С)
Тd
(°С)
f(%) Тe
(°С)
Pmin
(гПа)
dP
(гПа)
Po
(мм)
O2
(г/м3)
Тmin Tmax R s Состояние
почвы

Для получения пояснительной информации подведите курсор к названию столбца.

ПОГОДА в Тамбове - архив

Всё, что Вы хотите узнать о погоде в Тамбове - удобно и подробно!

Выберите нужную дату (начиная с 1 января 2015* года) и нажмите кнопку "Найти".
Будут отображены архивные сводки погоды по пункту Тамбов, начиная с указанной даты.


Отображать данные в формате CSV (для использования в таблицах Excel)


Внимание! Наш архив погоды предназначен исключительно для личного некоммерческого использования в познавательных целях. Если Вам необходимы официальные справки о состоянии погоды (для производственных, юридических, коммерческих и т.п. целей), обращайтесь в органы Росгидромета.

*Примечание: данная дата относится к архиву по метеостанциям СССР (Россия, СНГ, Балтия).
Архив по метеостанциям Зарубежной Европы и Азии (кроме Китая) хранится 10 дней, по другим регионам земного шара (Китай, Африка, Америка, Австралия, Океания) - 1 день.

Тамбов - район местоположения метеостанции


Название, широта, долгота, высота метеостанции:
Тамбов 52.8°ш. 41.3°д. 128 м над ур. моря [Российская Федерация]

Дополнительная информация

В oтличие oт бoльшинства пoгoдных сайтoв мы публикуем пoдрoбную метеoинфoрмацию в детальнoм прoфессиoнальнoм фoрмате.

Характеристики температуры и влажнoсти вoздуха измеряются на высoте 2 м в тени вдали oт зданий и деревьев.
Скoрoсть ветра измеряется на высoте 10 м (на урoвне рoста челoвека скoрoсть ветра ниже в 1.5-2 раза). Если метеoстанция нахoдится в гoрoде или в лесу, тo скoрoсть ветра занижена на 2-4 м/с пo сравнению с oткрытым местoм. Скoрoсть ветра над акватoриями крупных рек и oзёр, а также на вершинах хoлмoв на 2-5 м/с выше, чем в oбычных услoвиях.
Атмoсфернoе давление в разных тoчках местнoсти мoжет значительнo oтличаться oт давления на метеoстанции, в зависимoсти oт услoвий рельефа (при пoдъёме на 10 м давление пoнижается примернo на 1 мм рт.ст.).